Murray, KY

9:33 PM CST on November 18, 2017 (GMT -0600)
Kyle-Oakley

Weather History for KCEY - October, 2013

Change the Weather History Date:

Sunday, October 6, 2013

  Actual Average (KPAH) Record (KPAH)
Temperature  
Mean Temperature 59 °F -  
Max Temperature 68 °F 72 °F 95 °F (1938)
Min Temperature 48 °F 48 °F 33 °F (1980)
Degree Days  
Heating Degree Days 6    
Growing Degree Days 9 (Base 50)    
Moisture  
Dew Point 53 °F    
Average Humidity 79    
Maximum Humidity 100    
Minimum Humidity 46    
Precipitation  
Precipitation 1.57 in - - ()
Sea Level Pressure  
Sea Level Pressure 29.90 in    
Wind  
Wind Speed 8 mph (West)    
Max Wind Speed 21 mph    
Max Gust Speed 26 mph    
Visibility 9 miles    
Events      
Averages and records for this station are not official NWS values.
T = Trace of Precipitation, MM = Missing Value Source: NWS Daily Summary

Daily Weather History Graph

Daily Weather History Graph

Search for Another Location

Airport or City:

Trip Planner

Search our weather history database for the weather conditions in past years. The results will help you decide how hot, cold, wet, or windy it might be!

Date:

Astronomy

Oct. 06, 2013 Rise Set
Actual Time 6:53 AM CDT 6:29 PM CDT
Civil Twilight 6:27 AM CDT 6:55 PM CDT
Nautical Twilight 5:57 AM CDT 7:24 PM CDT
Astronomical Twilight 5:27 AM CDT 7:54 PM CDT
Moon 8:33 AM CDT (10/6) 7:32 PM CDT (10/6)
Length of Visible Light 12h 27m
Length of Day
11h 36m
Waxing Crescent, 3% of the Moon is Illuminated
Oct 6
Waxing Crescent
Oct 11
First Quarter
Oct 18
Full
Oct 26
Last Quarter
Nov 3
New

Hourly Weather History & Observations

Time (CDT) Temp. Dew Point Humidity Pressure Visibility Wind Dir Wind Speed Gust Speed Precip Events Conditions
12:15 AM 68.0 °F 66.2 °F 94% 29.89 in 10.0 mi WNW 12.7 mph 16.1 mph N/A   Overcast
12:35 AM 68.0 °F 66.2 °F 94% 29.88 in 8.0 mi NNW 8.1 mph - 0.12 in   Overcast
12:55 AM 66.2 °F 66.2 °F 100% 29.89 in 1.8 mi WNW 12.7 mph 19.6 mph 0.27 in   Overcast
1:15 AM 66.2 °F 66.2 °F 100% 29.88 in 1.0 mi NNW 11.5 mph - 0.33 in   Overcast
1:35 AM 66.2 °F 66.2 °F 100% 29.87 in 3.0 mi NW 5.8 mph - 0.48 in   Overcast
1:55 AM 66.2 °F 66.2 °F 100% 29.87 in 5.0 mi NW 4.6 mph - 0.55 in   Overcast
2:15 AM 66.2 °F 66.2 °F 100% 29.88 in 3.0 mi Calm Calm - 0.06 in   Overcast
2:35 AM 66.2 °F 66.2 °F 100% 29.88 in 2.5 mi Calm Calm - 0.29 in   Overcast
2:55 AM 64.4 °F 64.4 °F 100% 29.86 in 9.0 mi Calm Calm - 0.31 in   Overcast
3:15 AM 64.4 °F 64.4 °F 100% 29.84 in 9.0 mi Calm Calm - 0.01 in   Mostly Cloudy
3:35 AM 66.2 °F 66.2 °F 100% 29.86 in 5.0 mi SW 3.5 mph - 0.01 in   Overcast
3:55 AM 64.4 °F 64.4 °F 100% 29.87 in 2.0 mi SSW 4.6 mph - 0.09 in   Overcast
4:15 AM 64.4 °F 64.4 °F 100% 29.89 in 1.8 mi NW 20.7 mph 26.5 mph 0.11 in   Overcast
4:35 AM 57.2 °F 57.2 °F 100% 29.90 in 4.0 mi NW 13.8 mph 20.7 mph 0.18 in   Overcast
4:55 AM 55.4 °F 55.4 °F 100% 29.90 in 3.0 mi NW 11.5 mph - 0.28 in   Overcast
5:15 AM 55.4 °F 55.4 °F 100% 29.90 in 7.0 mi NNW 9.2 mph - 0.02 in   Overcast
5:35 AM 55.4 °F 55.4 °F 100% 29.91 in 9.0 mi WNW 8.1 mph - 0.03 in   Mostly Cloudy
5:55 AM 55.4 °F 55.4 °F 100% 29.92 in 7.0 mi WNW 11.5 mph - 0.05 in   Overcast
6:15 AM 55.4 °F 53.6 °F 94% 29.91 in 10.0 mi NW 11.5 mph - N/A   Overcast
6:35 AM 55.4 °F 53.6 °F 94% 29.92 in 6.0 mi NW 10.4 mph 17.3 mph 0.02 in   Overcast
6:55 AM 53.6 °F 51.8 °F 94% 29.91 in 10.0 mi NNW 8.1 mph - 0.02 in   Overcast
7:15 AM 53.6 °F 51.8 °F 94% 29.92 in 10.0 mi NW 5.8 mph - N/A   Overcast
7:35 AM 53.6 °F 51.8 °F 94% 29.92 in 10.0 mi NW 5.8 mph - N/A   Overcast
7:55 AM 53.6 °F 51.8 °F 94% 29.92 in 10.0 mi Calm Calm - N/A   Overcast
8:15 AM 55.4 °F 51.8 °F 88% 29.93 in 10.0 mi WSW 3.5 mph - N/A   Overcast
8:35 AM 55.4 °F 53.6 °F 94% 29.93 in 10.0 mi West 5.8 mph - N/A   Overcast
8:55 AM 55.4 °F 53.6 °F 94% 29.92 in 10.0 mi WSW 6.9 mph - N/A   Overcast
9:15 AM 55.4 °F 53.6 °F 94% 29.92 in 10.0 mi SW 4.6 mph - N/A   Overcast
9:35 AM 57.2 °F 53.6 °F 88% 29.92 in 10.0 mi WSW 8.1 mph - N/A   Overcast
9:55 AM 57.2 °F 53.6 °F 88% 29.92 in 10.0 mi West 9.2 mph - N/A   Overcast
10:15 AM 57.2 °F 53.6 °F 88% 29.92 in 10.0 mi WSW 6.9 mph - N/A   Overcast
10:35 AM 59.0 °F 50.0 °F 72% 29.92 in 10.0 mi West 5.8 mph - N/A   Overcast
10:55 AM 59.0 °F 50.0 °F 72% 29.91 in 10.0 mi West 5.8 mph - N/A   Overcast
11:15 AM 59.0 °F 50.0 °F 72% 29.92 in 10.0 mi West 9.2 mph - N/A   Overcast
11:35 AM 60.8 °F 50.0 °F 68% 29.90 in 10.0 mi West 8.1 mph - N/A   Overcast
11:55 AM 60.8 °F 50.0 °F 68% 29.90 in 10.0 mi SW 6.9 mph - N/A   Overcast
12:15 PM 62.6 °F 50.0 °F 63% 29.90 in 10.0 mi WSW 5.8 mph - N/A   Overcast
12:35 PM 62.6 °F 48.2 °F 59% 29.89 in 10.0 mi SW 5.8 mph - N/A   Overcast
12:55 PM 62.6 °F 50.0 °F 63% 29.89 in 10.0 mi SW 8.1 mph - N/A   Overcast
1:15 PM 62.6 °F 50.0 °F 63% 29.88 in 10.0 mi SW 8.1 mph - N/A   Overcast
1:35 PM 62.6 °F 50.0 °F 63% 29.88 in 10.0 mi SW 9.2 mph - N/A   Overcast
1:55 PM 64.4 °F 50.0 °F 59% 29.87 in 10.0 mi SSW 12.7 mph 16.1 mph N/A   Mostly Cloudy
2:15 PM 64.4 °F 50.0 °F 59% 29.86 in 10.0 mi SW 8.1 mph - N/A   Partly Cloudy
2:35 PM 66.2 °F 51.8 °F 60% 29.86 in 10.0 mi WSW 9.2 mph - N/A   Clear
2:55 PM 68.0 °F 48.2 °F 49% 29.85 in 10.0 mi WSW 17.3 mph 20.7 mph N/A   Partly Cloudy
3:15 PM 68.0 °F 48.2 °F 49% 29.85 in 10.0 mi West 10.4 mph 20.7 mph N/A   Clear
3:35 PM 68.0 °F 46.4 °F 46% 29.84 in 10.0 mi West 18.4 mph 23.0 mph N/A   Clear
3:55 PM 66.2 °F 46.4 °F 49% 29.85 in 10.0 mi West 12.7 mph - N/A   Clear
4:15 PM 68.0 °F 48.2 °F 49% 29.84 in 10.0 mi West 12.7 mph - N/A   Clear
4:35 PM 66.2 °F 46.4 °F 49% 29.85 in 10.0 mi West 12.7 mph 23.0 mph N/A   Clear
4:55 PM 66.2 °F 46.4 °F 49% 29.85 in 10.0 mi West 10.4 mph 16.1 mph N/A   Clear
5:15 PM 64.4 °F 46.4 °F 52% 29.85 in 10.0 mi West 11.5 mph 18.4 mph N/A   Clear
5:35 PM 64.4 °F 48.2 °F 56% 29.86 in 10.0 mi West 9.2 mph - N/A   Clear
5:55 PM 64.4 °F 48.2 °F 56% 29.86 in 10.0 mi West 8.1 mph - N/A   Clear
6:15 PM 62.6 °F 48.2 °F 59% 29.87 in 10.0 mi West 9.2 mph - N/A   Clear
6:35 PM 60.8 °F 48.2 °F 63% 29.88 in 10.0 mi West 9.2 mph - N/A   Clear
6:55 PM 59.0 °F 48.2 °F 67% 29.89 in 10.0 mi West 8.1 mph - N/A   Clear
7:15 PM 59.0 °F 48.2 °F 67% 29.89 in 10.0 mi West 6.9 mph - N/A   Clear
7:35 PM 57.2 °F 48.2 °F 72% 29.89 in 10.0 mi West 5.8 mph - N/A   Clear
7:55 PM 57.2 °F 48.2 °F 72% 29.90 in 10.0 mi West 5.8 mph - N/A   Clear
8:15 PM 57.2 °F 48.2 °F 72% 29.90 in 10.0 mi WNW 10.4 mph - N/A   Clear
8:35 PM 57.2 °F 48.2 °F 72% 29.92 in 10.0 mi WNW 6.9 mph - N/A   Mostly Cloudy
8:55 PM 55.4 °F 48.2 °F 77% 29.93 in 10.0 mi NW 6.9 mph - N/A   Mostly Cloudy
9:15 PM 55.4 °F 48.2 °F 77% 29.94 in 10.0 mi NW 6.9 mph - N/A   Partly Cloudy
9:35 PM 55.4 °F 46.4 °F 72% 29.95 in 10.0 mi NW 6.9 mph - N/A   Clear
9:55 PM 55.4 °F 46.4 °F 72% 29.96 in 10.0 mi NNW 4.6 mph - N/A   Clear
10:15 PM 53.6 °F 46.4 °F 77% 29.97 in 10.0 mi NW 6.9 mph - N/A   Clear
10:35 PM 51.8 °F 44.6 °F 76% 29.97 in 10.0 mi NW 4.6 mph - N/A   Clear
10:55 PM 51.8 °F 44.6 °F 76% 29.97 in 10.0 mi WNW 3.5 mph - N/A   Clear
11:15 PM 50.0 °F 44.6 °F 82% 29.97 in 10.0 mi WNW 4.6 mph - N/A   Clear
11:35 PM 50.0 °F 44.6 °F 82% 29.97 in 10.0 mi West 3.5 mph - N/A   Clear
11:55 PM 48.2 °F 44.6 °F 87% 29.98 in 10.0 mi WNW 3.5 mph - N/A   Clear